Regional Weather Roundup
Issued by NWS

Home | Current Version | Previous Version | Text Only | Print | Product List | Glossary Off
Versions: 1 2 3 4 5 6 7 8 9 10 11 12 13 14 15 16 17 18 19 20 21 22 23 24 25 26 27

000
ASUS45 KCYS 190910
RWRWY

WYOMING REGIONAL WEATHER ROUNDUP
NATIONAL WEATHER SERVICE CHEYENNE WY
300 AM MDT THU OCT 19 2017

NOTE:  "FAIR" INDICATES FEW OR NO CLOUDS BELOW 12,000 FEET
WITH NO SIGNIFICANT WEATHER AND/OR OBSTRUCTIONS TO VISIBILITY.

WYZ001-191000-
YELLOWSTONE NATIONAL PARK

CITY           SKY/WX    TMP DP  RH WIND       PRES   REMARKS
LK YELLOWSTONE   N/A     27  23  85 CALM      30.17F
W YELLOWSTONE  NOT AVBL

$$
WYZ002>013-054>058-071-098>099-191000-
NORTHERN WYOMING

CITY           SKY/WX    TMP DP  RH WIND       PRES   REMARKS
JACKSON        FAIR      30  24  78 NE6       30.14S WCI  24
CODY           FAIR      57  21  24 VRB5      29.98S
GREYBULL       FAIR      42  25  50 NE3       29.94S
WORLAND        FAIR      35  27  72 SE5       29.94S WCI  31
SHERIDAN       FAIR      42  27  55 NW7       29.88S
BUFFALO        FAIR      54  15  21 W8        29.94S
GILLETTE       FAIR      55  19  24 SW16      29.91R
HULETT         FAIR      55  21  26 SW13      29.92F
NEWCASTLE      FAIR      50  21  32 SE13      29.97F

$$
WYZ014>020-022>026-101>103-191000-
CENTRAL WYOMING

CITY           SKY/WX    TMP DP  RH WIND       PRES   REMARKS
BIG PINEY      FAIR      22  14  71 E3        30.18F
PINEDALE       FAIR      23  19  86 NW3       30.19S
DUBOIS         FAIR      37  19  48 NW16G22   30.12R WCI  28
LANDER         FAIR      46  20  35 SW13      30.02F
RIVERTON       FAIR      43  21  41 SW8       30.03F
CASPER         FAIR      44  16  32 SW9       30.03F
DOUGLAS        FAIR      42  20  41 CALM      30.01F

$$
WYZ021-027>030-104>119-191000-
SOUTHERN WYOMING

CITY           SKY/WX    TMP DP  RH WIND       PRES   REMARKS
EVANSTON       FAIR      43  12  28 S7        30.16F
KEMMERER       FAIR      30  19  64 N12       30.18F WCI  21
FORT BRIDGER   FAIR      45   8  22 CALM      30.19F
ROCK SPRINGS   FAIR      42   9  25 CALM      30.17S
DIXON          FAIR      34  12  39 NE5       30.21S WCI  30
RAWLINS        FAIR      31  13  47 SE3       30.16F
SARATOGA       FAIR      34  14  44 CALM      30.19S
LARAMIE        FAIR      29  17  61 S12       30.18S WCI  19
CHEYENNE       FAIR      36  22  56 W8        30.12F WCI  30
TORRINGTON     FAIR      43  28  55 E8        30.03F
PINE BLUFFS    FAIR      32  27  80 MISG      30.10F

$$




USA.gov is the U.S. government's official web portal to all federal, state and local government web resources and services.